Location: D�derode
(51.8092°N, 10.1065°E)
Time: 02:01:53
(UTC+00:00)

Cosmos 1812 - Pass Details

Date: 16 April 2021
Orbit: 516 x 519 km, 82.5° (Epoch: 10 May)

Event Time Altitude Azimuth Distance (km) Brightness Sun altitude
Exits shadow 01:28:07 16° 302° (WNW) 1,428 4.9 -22.1°
Drops below altitude 10° 01:30:15 10° 335° (NNW) 1,765 5.8 -21.9°
Sets 01:33:06 0° 358° (N) 2,660 7.1 -21.7°
